GW4386 Weather Reports


Display with metric or nautical units.
time (UTC)temp
F
wind
direction
speed
MPH
gust
MPH
rain 1hr
in
rain 24hr
in
rain mn
in
humidity
%
barometer
mb
20260506191628 50 15 3.0 6.0 0.00 0.06 0.06 86 1008.9
20260506191100 50 20 2.0 6.0 0.00 0.06 0.06 86 1008.8
20260506191003 50 26 3.0 8.0 0.00 0.06 0.06 86 1008.8
20260506190501 50 57 2.0 8.0 0.00 0.06 0.06 86 1008.7
20260506190100 50 18 1.0 8.0 0.00 0.06 0.06 86 1008.6
20260506185558 50 23 1.0 8.0 0.00 0.06 0.06 86 1008.7
20260506185058 51 329 1.0 6.0 0.00 0.06 0.06 86 1008.5
20260506184632 51 347 1.0 6.0 0.00 0.06 0.06 86 1008.4
20260506184102 51 295 2.0 9.0 0.00 0.06 0.06 86 1008.3
20260506184009 51 9 1.0 9.0 0.00 0.06 0.06 86 1008.3
20260506183604 52 257 2.0 8.0 0.00 0.06 0.06 86 1008.2
20260506183111 52 23 2.0 6.0 0.00 0.06 0.06 85 1008.2
20260506182559 52 55 3.0 6.0 0.00 0.06 0.06 86 1008.0
20260506182059 52 28 3.0 6.0 0.00 0.06 0.06 86 1008.0
20260506181602 52 22 2.0 5.0 0.00 0.06 0.06 86 1008.0
20260506181059 52 300 2.0 5.0 0.00 0.06 0.06 86 1008.0
20260506180559 53 305 1.0 6.0 0.00 0.06 0.06 86 1008.0
20260506180059 53 19 2.0 6.0 0.00 0.06 0.06 86 1008.0
20260506180002 53 350 3.0 6.0 0.00 0.06 0.06 86 1008.0
20260506175501 54 308 3.0 8.0 0.00 0.06 0.06 85 1007.9
20260506175059 54 63 3.0 8.0 0.00 0.06 0.06 85 1007.9
20260506174601 55 336 2.0 5.0 0.00 0.06 0.06 85 1007.9
20260506174103 55 345 1.0 4.0 0.00 0.06 0.06 85 1007.8
20260506173603 56 306 0.0 3.0 0.00 0.06 0.06 85 1007.7
20260506173501 56 290 0.0 3.0 0.00 0.06 0.06 85 1007.6
20260506173101 56 304 0.0 3.0 0.00 0.06 0.06 84 1007.6
20260506172600 56 44 1.0 3.0 0.00 0.06 0.06 84 1007.5
20260506172059 56 76 0.0 4.0 0.00 0.06 0.06 84 1007.5
20260506171608 56 43 1.0 5.0 0.00 0.06 0.06 83 1007.5
20260506171501 56 329 0.0 5.0 0.00 0.06 0.06 83 1007.6
20260506171100 57 38 2.0 5.0 0.00 0.06 0.06 82 1007.5
20260506171002 57 44 3.0 5.0 0.00 0.06 0.06 82 1007.5
20260506170559 57 46 0.0 5.0 0.00 0.06 0.06 82 1007.4
20260506170002 58 36 2.0 5.0 0.00 0.06 0.06 82 1007.3
20260506165603 58 317 1.0 7.0 0.00 0.06 0.06 82 1007.2
20260506165059 58 50 5.0 7.0 0.00 0.06 0.06 82 1007.1
20260506164600 58 340 1.0 5.0 0.00 0.06 0.06 82 1007.1
20260506164100 58 349 2.0 6.0 0.00 0.06 0.06 82 1007.1
20260506163600 58 13 3.0 9.0 0.00 0.06 0.06 83 1007.1
20260506163109 58 70 4.0 9.0 0.00 0.06 0.06 83 1007.1
20260506162501 58 342 3.0 7.0 0.00 0.06 0.06 83 1007.0
20260506162102 57 51 2.0 9.0 0.00 0.06 0.06 84 1007.0
20260506161501 57 62 5.0 9.0 0.00 0.06 0.06 83 1007.0
20260506161002 58 50 4.0 7.0 0.00 0.06 0.06 83 1007.0
20260506160601 58 331 2.0 8.0 0.00 0.06 0.06 83 1007.0
20260506160109 58 343 2.0 7.0 0.00 0.06 0.06 83 1006.9
20260506160002 58 17 3.0 7.0 0.00 0.06 0.06 83 1006.9
20260506155559 59 36 3.0 9.0 0.00 0.06 0.06 83 1006.8
20260506155503 59 61 2.0 9.0 0.00 0.06 0.06 83 1006.8
20260506155102 59 44 4.0 9.0 0.00 0.06 0.06 82 1006.7
20260506154600 59 25 3.0 8.0 0.00 0.06 0.06 82 1006.8
20260506154102 60 50 4.0 9.0 0.00 0.06 0.06 82 1006.7
20260506153600 60 78 4.0 9.0 0.00 0.06 0.06 81 1006.7
20260506153501 60 50 5.0 9.0 0.00 0.06 0.06 81 1006.7
20260506153100 60 48 4.0 8.0 0.00 0.06 0.06 81 1006.7
20260506153001 60 53 4.0 7.0 0.00 0.06 0.06 81 1006.7
20260506152559 60 47 5.0 7.0 0.00 0.06 0.06 80 1006.7
20260506152100 60 54 3.0 7.0 0.00 0.06 0.06 81 1006.7
20260506151601 60 34 4.0 8.0 0.00 0.06 0.06 81 1006.7
20260506151100 60 48 3.0 6.0 0.00 0.06 0.06 81 1006.8
20260506150600 60 65 4.0 6.0 0.00 0.06 0.06 81 1006.8
20260506150059 60 96 3.0 6.0 0.00 0.06 0.06 82 1006.8
20260506145600 60 49 4.0 8.0 0.00 0.07 0.06 81 1006.8
20260506145059 60 32 4.0 8.0 0.00 0.07 0.06 81 1006.7
20260506144604 60 23 4.0 6.0 0.00 0.07 0.06 81 1006.8
20260506144001 60 15 2.0 9.0 0.00 0.07 0.06 79 1006.8
20260506143600 61 27 5.0 9.0 0.00 0.07 0.06 78 1006.7
20260506143101 62 42 3.0 5.0 0.00 0.07 0.06 76 1006.8
20260506142559 62 229 0.0 2.0 0.00 0.07 0.06 75 1006.8
20260506142501 62 57 0.0 2.0 0.00 0.07 0.06 76 1006.8
20260506142003 62 207 0.0 2.0 0.00 0.07 0.06 77 1006.8
20260506141600 62 202 0.0 0.0 0.00 0.07 0.06 75 1006.8
20260506141500 62 202 0.0 0.0 0.00 0.07 0.06 75 1006.9
20260506141101 62 126 0.0 3.0 0.00 0.07 0.06 76 1006.8
20260506140600 62 182 0.0 3.0 0.00 0.07 0.06 75 1006.8
20260506140502 62 163 0.0 3.0 0.00 0.07 0.06 75 1006.9
20260506140104 62 146 0.0 3.0 0.00 0.07 0.06 76 1006.7
20260506135558 61 196 0.0 3.0 0.00 0.07 0.06 76 1006.8
20260506135058 61 230 1.0 3.0 0.00 0.07 0.06 76 1006.8
20260506134559 61 202 0.0 6.0 0.00 0.07 0.06 77 1006.9
20260506134059 61 200 2.0 8.0 0.00 0.07 0.06 76 1006.9
20260506133559 61 209 4.0 8.0 0.00 0.07 0.06 76 1007.0
20260506133102 61 215 4.0 10.0 0.00 0.07 0.06 76 1007.0
20260506132600 61 209 3.0 10.0 0.00 0.07 0.06 75 1006.8
20260506132102 62 205 1.0 8.0 0.00 0.07 0.06 75 1006.8
20260506131617 62 187 1.0 8.0 0.00 0.07 0.06 75 1006.8
20260506131100 62 197 4.0 8.0 0.00 0.07 0.06 74 1006.7
20260506130600 62 181 1.0 4.0 0.00 0.07 0.06 75 1006.7
20260506130059 62 205 1.0 4.0 0.00 0.07 0.06 74 1006.7
20260506125502 62 139 0.0 3.0 0.00 0.07 0.06 74 1006.7
20260506125059 62 182 0.0 4.0 0.00 0.07 0.06 74 1006.6
20260506124601 62 212 0.0 3.0 0.00 0.07 0.06 73 1006.6
20260506124101 63 215 0.0 5.0 0.00 0.07 0.06 73 1006.6
20260506123600 63 191 1.0 6.0 0.00 0.07 0.06 73 1006.6
20260506123101 63 217 1.0 8.0 0.00 0.07 0.06 73 1006.6
20260506123001 63 207 0.0 8.0 0.00 0.07 0.06 73 1006.6
20260506122559 63 216 4.0 8.0 0.00 0.07 0.06 72 1006.5
20260506122001 63 121 0.0 4.0 0.00 0.07 0.06 74 1006.6
20260506121602 61 93 0.0 7.0 0.00 0.07 0.06 77 1006.6
20260506121100 61 184 3.0 7.0 0.00 0.07 0.06 77 1006.9
20260506121001 61 188 2.0 7.0 0.00 0.07 0.06 78 1006.9
20260506120604 60 111 2.0 5.0 0.00 0.07 0.06 79 1006.9
20260506115558 60 310 0.0 3.0 0.00 0.07 0.06 80 1006.9
20260506115058 59 38 0.0 2.0 0.00 0.07 0.06 80 1006.9
20260506114559 59 57 0.0 2.0 0.00 0.07 0.06 80 1006.9
20260506114101 59 320 0.0 3.0 0.00 0.07 0.06 80 1006.9
20260506113559 59 182 0.0 3.0 0.00 0.07 0.06 80 1006.9
20260506113100 59 137 0.0 3.0 0.00 0.07 0.06 80 1007.0
20260506112559 59 227 0.0 3.0 0.00 0.07 0.06 80 1006.9
20260506112058 59 305 0.0 1.0 0.00 0.07 0.06 80 1006.8
20260506111559 59 65 0.0 3.0 0.00 0.07 0.06 79 1006.7
20260506111101 59 55 1.0 4.0 0.00 0.07 0.06 79 1006.6
20260506110559 59 41 0.0 4.0 0.00 0.07 0.06 80 1006.6
20260506110059 59 310 0.0 4.0 0.00 0.07 0.06 81 1006.5
20260506105559 59 292 1.0 4.0 0.00 0.07 0.06 80 1006.5
20260506105104 59 319 1.0 4.0 0.00 0.07 0.06 80 1006.4
20260506104607 59 273 0.0 4.0 0.00 0.07 0.06 80 1006.5
20260506104101 59 216 0.0 3.0 0.00 0.07 0.06 78 1006.4
20260506103600 59 53 2.0 4.0 0.00 0.07 0.06 79 1006.4
20260506103100 59 36 2.0 4.0 0.00 0.07 0.06 79 1006.4
20260506102601 59 317 0.0 4.0 0.00 0.07 0.06 79 1006.4
20260506102059 59 40 0.0 2.0 0.00 0.07 0.06 79 1006.4
20260506101600 59 209 0.0 5.0 0.00 0.07 0.06 79 1006.5
20260506101058 59 91 0.0 5.0 0.00 0.07 0.06 79 1006.5
20260506100558 59 36 2.0 4.0 0.00 0.07 0.06 80 1006.5
20260506100503 59 78 2.0 6.0 0.00 0.07 0.06 80 1006.5
20260506100114 59 86 2.0 7.0 0.00 0.07 0.06 80 1006.6
20260506100003 59 61 2.0 7.0 0.00 0.07 0.06 80 1006.6
20260506095603 59 167 2.0 7.0 0.00 0.07 0.06 80 1006.6
20260506095502 59 142 2.0 7.0 0.00 0.07 0.06 80 1006.6
20260506095105 59 38 3.0 7.0 0.01 0.07 0.06 81 1006.4
20260506095000 59 55 3.0 7.0 0.01 0.07 0.06 81 1006.4
20260506094501 59 71 3.0 9.0 0.01 0.07 0.06 81 1006.4
20260506094059 59 59 4.0 9.0 0.01 0.07 0.06 84 1006.3
20260506093600 58 49 2.0 6.0 0.01 0.07 0.06 85 1006.3
20260506093100 58 54 3.0 6.0 0.01 0.07 0.06 85 1006.5
20260506093001 58 36 3.0 5.0 0.01 0.07 0.06 86 1006.5
20260506092600 57 336 2.0 5.0 0.01 0.07 0.06 86 1006.5
20260506092504 57 324 1.0 5.0 0.01 0.07 0.06 86 1006.5
20260506092059 56 55 2.0 5.0 0.01 0.07 0.06 86 1006.6
20260506091601 56 319 1.0 4.0 0.01 0.07 0.06 87 1006.6
20260506091100 56 23 1.0 3.0 0.01 0.07 0.06 87 1006.6
20260506090559 55 124 0.0 5.0 0.01 0.07 0.06 87 1006.5
20260506090101 55 338 0.0 9.0 0.01 0.07 0.06 86 1006.2
20260506085558 55 64 5.0 9.0 0.01 0.07 0.06 85 1006.0
20260506085059 55 51 3.0 10.0 0.00 0.06 0.06 84 1006.2
20260506084604 55 27 5.0 10.0 0.00 0.06 0.06 83 1006.3
20260506084100 55 29 4.0 6.0 0.00 0.06 0.06 83 1006.5
20260506083559 55 34 1.0 7.0 0.00 0.06 0.06 83 1006.5
20260506083100 55 32 3.0 7.0 0.00 0.06 0.06 82 1006.7
20260506082558 55 46 2.0 9.0 0.00 0.06 0.06 82 1006.7
20260506082059 55 53 4.0 9.0 0.00 0.06 0.06 82 1006.6
20260506081559 55 36 4.0 7.0 0.00 0.06 0.06 82 1006.5
20260506081058 55 72 2.0 12.0 0.00 0.06 0.06 82 1006.4
20260506080600 55 47 6.0 12.0 0.00 0.06 0.06 82 1006.3
20260506073059 54 103 5.0 15.0 0.00 0.06 0.06 84 1006.5
20260506072559 53 42 5.0 15.0 0.00 0.06 0.06 84 1006.3
20260506072100 53 70 7.0 13.0 0.00 0.06 0.06 84 1006.2
20260506071601 53 39 7.0 13.0 0.00 0.06 0.06 85 1006.4
20260506071102 53 49 8.0 14.0 0.00 0.06 0.06 85 1006.4
20260506070600 53 70 7.0 14.0 0.00 0.06 0.06 85 1006.3
20260506062059 51 17 6.0 14.0 0.00 0.06 0.06 86 1006.6
20260506061559 51 113 8.0 14.0 0.00 0.06 0.06 86 1006.7
20260506061059 51 49 4.0 14.0 0.00 0.06 0.06 86 1006.8
20260506060600 51 59 4.0 14.0 0.00 0.06 0.06 86 1006.7
20260506051100 49 49 7.0 15.0 0.00 0.06 0.06 88 1006.8
20260506050559 49 59 8.0 15.0 0.00 0.06 0.06 88 1007.0
20260506045058 49 49 6.0 12.0 0.00 0.06 0.06 87 1007.0
20260506044558 49 42 5.0 13.0 0.00 0.06 0.06 87 1007.1
20260506044058 49 69 4.0 15.0 0.00 0.06 0.06 87 1007.3
20260506043600 49 50 5.0 12.0 0.00 0.06 0.06 87 1007.4
20260506043059 49 29 4.0 12.0 0.00 0.06 0.06 87 1007.5
20260506042559 49 49 6.0 15.0 0.00 0.06 0.06 87 1007.6
20260506042101 49 53 9.0 15.0 0.00 0.06 0.06 87 1007.7
20260506041605 49 53 7.0 12.0 0.00 0.06 0.06 87 1007.7
20260506041058 49 48 6.0 16.0 0.00 0.06 0.06 87 1007.9
20260506040559 48 52 10.0 16.0 0.00 0.06 0.06 87 1007.9
20260506040110 48 30 7.0 12.0 0.00 0.06 0.06 87 1008.0
20260506035559 48 59 5.0 11.0 0.00 0.06 0.06 87 1008.0
20260506035059 48 70 6.0 11.0 0.00 0.06 0.06 87 1008.0
20260506034604 48 51 6.0 11.0 0.00 0.06 0.06 87 1008.0
20260506034059 48 51 6.0 11.0 0.00 0.06 0.06 86 1008.1
20260506033559 48 38 3.0 11.0 0.00 0.06 0.06 86 1008.3
20260506033059 48 55 4.0 15.0 0.00 0.06 0.06 86 1008.2
20260506032558 48 36 6.0 15.0 0.00 0.06 0.06 86 1008.2
20260506032058 48 36 6.0 10.0 0.00 0.06 0.06 86 1008.2
20260506031602 48 59 3.0 10.0 0.00 0.06 0.06 86 1008.3
20260506031102 48 44 5.0 11.0 0.00 0.06 0.06 86 1008.3
20260506030558 48 315 5.0 13.0 0.00 0.06 0.06 86 1008.4
20260506030116 48 26 6.0 13.0 0.00 0.06 0.06 86 1008.5
20260506025601 48 123 2.0 10.0 0.00 0.06 0.06 86 1008.5
20260506025058 48 360 2.0 10.0 0.00 0.06 0.06 86 1008.6
20260506024600 48 41 3.0 14.0 0.00 0.06 0.06 86 1008.5
20260506024059 48 30 7.0 14.0 0.00 0.06 0.06 86 1008.5
20260506023559 48 64 4.0 11.0 0.00 0.06 0.06 86 1008.6
20260506023059 48 338 3.0 10.0 0.00 0.06 0.06 86 1008.6
20260506022559 48 24 5.0 10.0 0.00 0.06 0.06 86 1008.8
20260506022059 48 338 2.0 10.0 0.00 0.06 0.06 86 1008.9
20260506021606 48 28 6.0 10.0 0.00 0.06 0.06 86 1008.9
20260506021059 48 342 4.0 11.0 0.00 0.06 0.06 86 1008.9
20260506020558 48 68 4.0 11.0 0.00 0.06 0.06 86 1009.0
20260506020058 48 13 3.0 13.0 0.00 0.06 0.06 86 1009.0
20260506020001 48 54 3.0 13.0 0.00 0.06 0.06 86 1009.0
20260506015559 48 51 6.0 12.0 0.00 0.06 0.06 86 1009.1
20260506015100 48 39 6.0 11.0 0.00 0.06 0.06 86 1009.1
20260506014612 48 55 3.0 11.0 0.00 0.06 0.06 86 1009.0
20260506014058 48 69 5.0 12.0 0.00 0.06 0.06 86 1009.0
20260506013559 48 55 6.0 12.0 0.00 0.06 0.06 86 1009.1
20260506013100 48 59 7.0 13.0 0.00 0.06 0.06 86 1009.1
20260506012559 48 41 5.0 16.0 0.00 0.06 0.06 86 1009.1
20260506012101 48 42 8.0 16.0 0.01 0.06 0.06 86 1009.1
20260506011558 48 36 7.0 12.0 0.01 0.06 0.06 86 1009.1
20260506011059 48 53 7.0 13.0 0.01 0.06 0.06 86 1009.2
20260506010558 48 47 5.0 13.0 0.01 0.06 0.06 86 1009.1
20260506010106 49 53 5.0 11.0 0.01 0.06 0.06 86 1009.2
20260506010001 49 34 5.0 12.0 0.01 0.06 0.06 86 1009.3
20260506005600 49 42 7.0 12.0 0.01 0.06 0.06 86 1009.2
20260506005058 49 64 4.0 11.0 0.01 0.06 0.06 86 1009.2
20260506004558 49 22 5.0 11.0 0.01 0.06 0.06 86 1009.2
20260506004058 49 45 5.0 11.0 0.01 0.06 0.06 86 1009.2
20260506003558 49 36 5.0 12.0 0.01 0.06 0.06 86 1009.1
20260506003058 49 36 5.0 12.0 0.01 0.06 0.06 87 1009.2
20260506002558 49 45 6.0 11.0 0.02 0.06 0.06 87 1009.3
20260506002059 49 351 5.0 15.0 0.02 0.06 0.05 87 1009.4
20260506001602 49 52 6.0 15.0 0.03 0.06 0.05 87 1009.4
20260506001057 49 344 6.0 12.0 0.05 0.06 0.05 87 1009.6
20260506000559 49 29 6.0 12.0 0.05 0.06 0.05 87 1009.7
20260506000104 49 47 4.0 13.0 0.05 0.06 0.05 87 1009.7
20260506000001 49 34 4.0 13.0 0.05 0.06 0.05 87 1009.8
20260505235559 49 73 5.0 13.0 0.05 0.06 0.05 87 1009.8
20260505235059 49 33 6.0 10.0 0.05 0.06 0.05 87 1009.8
20260505234601 49 32 5.0 14.0 0.05 0.06 0.05 87 1010.0
20260505234059 49 45 4.0 14.0 0.05 0.06 0.05 88 1010.0
20260505233558 49 38 5.0 11.0 0.05 0.06 0.05 88 1010.0
20260505233127 50 306 5.0 12.0 0.05 0.06 0.05 88 1009.9
20260505232558 50 347 6.0 12.0 0.04 0.05 0.04 88 1009.9
20260505232059 50 43 6.0 13.0 0.03 0.04 0.03 88 1010.0
20260505231559 50 49 5.0 13.0 0.02 0.02 0.02 88 1009.9
20260505231059 50 52 7.0 11.0 0.00 0.01 0.00 88 1010.0
20260505230558 50 69 5.0 13.0 0.00 0.01 0.00 88 1010.3
20260505230059 50 335 7.0 13.0 0.00 0.01 0.00 88 1010.0
20260505225601 50 30 6.0 11.0 0.00 0.01 0.00 88 1010.0
20260505225103 50 49 3.0 12.0 0.00 0.01 0.00 88 1010.0
20260505224559 50 59 6.0 12.0 0.00 0.01 0.00 88 1010.0
20260505224103 50 36 5.0 14.0 0.00 0.01 0.00 88 1010.0
20260505223600 50 53 5.0 14.0 0.00 0.01 0.00 88 1009.9
20260505223102 50 61 5.0 14.0 0.00 0.01 0.00 88 1009.9
20260505222559 50 73 7.0 14.0 0.00 0.01 0.00 88 1009.9
20260505222100 50 53 7.0 12.0 0.00 0.01 0.00 88 1009.9
20260505221604 50 36 5.0 12.0 0.00 0.01 0.00 88 1010.0
20260505221501 50 68 4.0 13.0 0.00 0.01 0.00 88 1010.1
20260505221104 50 338 6.0 13.0 0.00 0.01 0.00 88 1010.1
20260505220559 50 23 8.0 14.0 0.00 0.01 0.00 88 1010.1
20260505220059 50 38 6.0 14.0 0.00 0.01 0.00 88 1010.1
20260505215559 50 29 5.0 12.0 0.00 0.01 0.01 88 1010.2
20260505215101 50 36 4.0 13.0 0.00 0.01 0.01 88 1010.2
20260505214605 50 49 5.0 13.0 0.00 0.01 0.01 88 1010.1
20260505214100 50 340 5.0 11.0 0.00 0.01 0.01 88 1010.2
20260505213559 50 15 5.0 12.0 0.00 0.01 0.01 88 1010.1
20260505213118 50 38 6.0 12.0 0.00 0.01 0.01 88 1010.2
20260505212600 50 36 6.0 11.0 0.00 0.01 0.01 88 1010.2
20260505212100 50 38 3.0 11.0 0.00 0.01 0.01 88 1010.2
20260505211600 50 31 6.0 12.0 0.00 0.01 0.01 88 1010.2
20260505211101 50 328 5.0 12.0 0.00 0.01 0.01 88 1010.3
20260505210559 50 64 4.0 12.0 0.00 0.01 0.01 88 1010.2
20260505210107 50 26 6.0 12.0 0.00 0.01 0.01 88 1010.2
20260505210002 50 36 6.0 12.0 0.00 0.01 0.01 88 1010.3
20260505205601 50 52 5.0 13.0 0.00 0.01 0.01 88 1010.3
20260505205104 50 346 5.0 13.0 0.00 0.01 0.01 88 1010.3
20260505204601 50 30 3.0 12.0 0.00 0.01 0.01 88 1010.3
20260505204103 50 61 4.0 9.0 0.00 0.01 0.01 88 1010.5
20260505203503 50 329 4.0 10.0 0.00 0.01 0.01 88 1010.4
20260505203100 50 52 3.0 9.0 0.00 0.01 0.01 88 1010.4
20260505203004 50 28 4.0 9.0 0.00 0.01 0.01 88 1010.4
20260505202601 50 48 4.0 9.0 0.00 0.01 0.01 88 1010.4
20260505202100 51 69 2.0 8.0 0.00 0.01 0.01 87 1010.4
20260505201601 51 52 4.0 11.0 0.00 0.01 0.01 87 1010.3
20260505201100 51 44 6.0 10.0 0.00 0.01 0.01 87 1010.4
20260505200601 51 50 3.0 7.0 0.00 0.01 0.01 87 1010.4
20260505200003 51 27 2.0 9.0 0.00 0.01 0.01 88 1010.4
20260505195604 51 28 4.0 9.0 0.00 0.01 0.01 88 1010.4
20260505195104 51 50 4.0 9.0 0.00 0.01 0.01 87 1010.5
20260505194602 51 13 3.0 6.0 0.00 0.01 0.01 87 1010.5
20260505194501 51 34 4.0 6.0 0.00 0.01 0.01 87 1010.5
20260505194101 51 36 3.0 9.0 0.00 0.01 0.01 87 1010.5
20260505193600 51 63 3.0 10.0 0.00 0.01 0.01 87 1010.4
20260505193130 51 55 2.0 10.0 0.00 0.01 0.01 87 1010.4
20260505192501 51 53 3.0 6.0 0.00 0.01 0.01 87 1010.4
20260505192002 51 44 2.0 6.0 0.00 0.01 0.01 87 1010.3